(161923) = 2007 EP86 = 1996 EL15

Discovered at Mount Lemmon on 2007-03-13 by Mt. Lemmon Survey.

Orbit

Orbit type: Main Belt

Note: WebGL enabled browser required.

epoch2023-09-13.0
epoch JD2460200.5
perihelion date2023-01-16.78887
perihelion JD2459961.28887
argument of perihelion (°)249.79807
ascending node (°)24.46310
inclination (°)1.46606
eccentricity0.1680717
perihelion distance (AU)1.9909079
Tisserand w.r.t. Jupiter3.5
ΔV w.r.t. Earth (km/sec)8.8
semimajor axis (AU)2.3931245
mean anomaly (°)63.68502
mean daily motion (°/day)0.26622930
aphelion distance (AU)2.795
period (years)3.7
P-vector [x]0.07417562
P-vector [y]-0.90513837
P-vector [z]-0.41859587
Q-vector [x]0.99718891
Q-vector [y]0.07178036
Q-vector [z]0.02149078
absolute magnitude17.53
phase slope0.15
uncertainty0
referenceMPO 778015
observations used304
oppositions16
arc length (days)10094
first opposition used1996
last opposition used2023
residual rms (arc-secs)0.76
perturbers coarse indicatorM-v
perturbers precise indicator003Ek
first observation date used1996-03-12.0
last observation date used2023-10-31.0
computer nameMPCLINUX
JD of orbit computation2456700.179187
perihelion JD uncertainty (days)9.6863E-05
argument of perihelion uncertainty (°)1.6837E-04
ascending node uncertainty (°)1.6669E-04
inclination uncertainty (°)6.2041E-06
eccentricity uncertainty 3.9178E-08
perihelion distance uncertainty (AU)8.9618E-08
Minimum Orbit Intersection Distances (in AU)
for orbit epoch: 2460200.5, reference: E2023-V03
Mercury1.52836
Venus1.2637
Earth0.9745
Mars0.51344
Jupiter2.30622
Saturn6.2612
Uranus15.8679
Neptune27.188

Observations

306 total observations over interval: 1996 03 12.34638 – 2023 10 31.311744
These data are available for download (format description).

Date (UT) J2000 RA J2000 Dec Magn Location Ref
1996 03 12.34638 10 39 32.96 +10 12 51.5   691 – Steward Observatory, Kitt Peak-Spacewatch MPC 27045
1996 03 12.36907 10 39 31.65 +10 12 57.1 20.7 V 691 – Steward Observatory, Kitt Peak-Spacewatch MPC 27045
1996 03 12.39185 10 39 30.32 +10 13 04.4   691 – Steward Observatory, Kitt Peak-Spacewatch MPC 27045
1996 03 17.37256 10 34 56.64 +10 36 30.0   691 – Steward Observatory, Kitt Peak-Spacewatch MPC 27045
1996 03 17.40088 10 34 55.06 +10 36 37.7   691 – Steward Observatory, Kitt Peak-Spacewatch MPC 27045
1996 03 17.42454 10 34 53.81 +10 36 43.6 21.4 V 691 – Steward Observatory, Kitt Peak-Spacewatch MPC 27045
2000 04 05.34861 13 29 11.25 -09 07 00.6 19.3   704 – Lincoln Laboratory ETS, New Mexico MPS 213876
2000 04 05.36317 13 29 10.46 -09 06 57.8 20.0   704 – Lincoln Laboratory ETS, New Mexico MPS 213876
2000 04 05.39211 13 29 08.79 -09 06 49.7 19.9   704 – Lincoln Laboratory ETS, New Mexico MPS 213876
2000 04 05.40672 13 29 07.95 -09 06 45.9 19.8   704 – Lincoln Laboratory ETS, New Mexico MPS 213876
2000 04 26.27621 13 09 31.89 -07 29 05.6 21.2 V 691 – Steward Observatory, Kitt Peak-Spacewatch MPS 208152
2000 04 26.29718 13 09 30.71 -07 29 00.1 20.9 V 691 – Steward Observatory, Kitt Peak-Spacewatch MPS 208152
2000 04 26.31815 13 09 29.61 -07 28 54.7 20.8 V 691 – Steward Observatory, Kitt Peak-Spacewatch MPS 208152
2000 05 02.21412 13 04 44.00 -07 05 15.4 20.3 V 691 – Steward Observatory, Kitt Peak-Spacewatch MPS 208152
2000 05 02.23579 13 04 42.97 -07 05 10.5 20.5 V 691 – Steward Observatory, Kitt Peak-Spacewatch MPS 208152
2000 05 02.25782 13 04 41.94 -07 05 05.6 20.6 V 691 – Steward Observatory, Kitt Peak-Spacewatch MPS 208152
2001 10 21.26000 01 39 41.72 +10 28 02.7 20.0   704 – Lincoln Laboratory ETS, New Mexico MPS 213876
2001 10 21.29748 01 39 39.53 +10 27 51.5 20.3   704 – Lincoln Laboratory ETS, New Mexico MPS 213876
2001 10 21.31391 01 39 38.44 +10 27 47.0 19.9   704 – Lincoln Laboratory ETS, New Mexico MPS 213876
2001 10 21.33054 01 39 37.43 +10 27 42.3 20.4   704 – Lincoln Laboratory ETS, New Mexico MPS 213876
2001 11 20.13434 01 16 30.72 +08 28 56.8 22.1 V 691 – Steward Observatory, Kitt Peak-Spacewatch MPS 208152
2001 11 20.15562 01 16 30.14 +08 28 54.5 21.7 V 691 – Steward Observatory, Kitt Peak-Spacewatch MPS 208152
2001 11 20.17703 01 16 29.54 +08 28 51.6 22.5 V 691 – Steward Observatory, Kitt Peak-Spacewatch MPS 208152
2003 01 29.158470 08 02 54.171 +22 45 19.25 21.45 V 645 – Apache Point-Sloan Digital Sky Survey MPS 208152
2003 01 29.161942 08 02 53.944 +22 45 19.88 22.26   645 – Apache Point-Sloan Digital Sky Survey MPS 208152
2005 10 31.40655 04 02 59.33 +21 50 40.8 21.2 V 691 – Steward Observatory, Kitt Peak-Spacewatch MPS 208152
2005 10 31.42409 04 02 58.35 +21 50 39.2 21.2 V 691 – Steward Observatory, Kitt Peak-Spacewatch MPS 208152
2005 10 31.44163 04 02 57.41 +21 50 37.0 21.3 V 691 – Steward Observatory, Kitt Peak-Spacewatch MPS 208152
2007 01 27.47867 10 29 35.20 +11 34 11.5 21.7 V 691 – Steward Observatory, Kitt Peak-Spacewatch MPS 208152
2007 01 27.49676 10 29 34.45 +11 34 16.1 22.0 V 691 – Steward Observatory, Kitt Peak-Spacewatch MPS 208152
2007 01 27.51485 10 29 33.70 +11 34 19.9 21.6 V 691 – Steward Observatory, Kitt Peak-Spacewatch MPS 208152
2007 02 23.17983 10 05 34.33 +13 47 37.7 21.4 V 691 – Steward Observatory, Kitt Peak-Spacewatch MPS 208152
2007 02 23.20093 10 05 32.98 +13 47 44.2 20.8 V 691 – Steward Observatory, Kitt Peak-Spacewatch MPS 208152
2007 02 23.22202 10 05 31.70 +13 47 50.4 20.8 V 691 – Steward Observatory, Kitt Peak-Spacewatch MPS 208152
2007 03 13.28557 09 48 43.63 +15 05 51.1 21.0 V G96 – Mt. Lemmon Survey MPS 203302
2007 03 13.29171 09 48 43.34 +15 05 52.1 21.5 V G96 – Mt. Lemmon Survey MPS 203302
2007 03 13.29778 09 48 43.05 +15 05 53.6 21.5 V G96 – Mt. Lemmon Survey MPS 203302
2007 03 13.30387 09 48 42.73 +15 05 54.7 21.0 V G96 – Mt. Lemmon Survey MPS 203302
2007 03 14.29164 09 47 56.79 +15 09 05.1 20.7 V G96 – Mt. Lemmon Survey MPS 203302
2007 03 14.29907 09 47 56.47 +15 09 06.9 20.8 V G96 – Mt. Lemmon Survey MPS 203302
2007 03 14.30648 09 47 56.07 +15 09 07.5 21.3 V G96 – Mt. Lemmon Survey MPS 203302
2007 03 14.31403 09 47 55.71 +15 09 08.8 20.8 V G96 – Mt. Lemmon Survey MPS 203302
2011 03 28.17089 12 27 04.59 -02 04 01.7 20.8 V 691 – Steward Observatory, Kitt Peak-Spacewatch MPS 376852
2011 03 28.18862 12 27 03.52 -02 03 56.6 20.2 V 691 – Steward Observatory, Kitt Peak-Spacewatch MPS 376852
2011 03 28.20635 12 27 02.45 -02 03 51.0 20.3 V 691 – Steward Observatory, Kitt Peak-Spacewatch MPS 376852
2011 03 28.35581 12 26 53.52 -02 03 02.3 19.9 V G96 – Mt. Lemmon Survey MPS 376852
2011 03 28.36097 12 26 53.19 -02 03 00.6 19.8 V G96 – Mt. Lemmon Survey MPS 376852
2011 03 28.36623 12 26 52.83 -02 02 58.2 19.5 V G96 – Mt. Lemmon Survey MPS 376852
2011 03 28.37151 12 26 52.62 -02 02 56.9 19.7 V G96 – Mt. Lemmon Survey MPS 376852
2011 03 31.18359 12 24 09.93 -01 47 36.2   691 – Steward Observatory, Kitt Peak-Spacewatch MPS 376852
2011 03 31.20131 12 24 08.82 -01 47 30.2   691 – Steward Observatory, Kitt Peak-Spacewatch MPS 376852
2011 03 31.21901 12 24 07.80 -01 47 24.7   691 – Steward Observatory, Kitt Peak-Spacewatch MPS 376852
2011 04 08.18649 12 16 33.22 -01 05 08.1 19.7 R H15 – ISON-NM Observatory, Mayhill MPS 378355
2011 04 08.20004 12 16 32.45 -01 05 04.1 19.8 R H15 – ISON-NM Observatory, Mayhill MPS 378355
2011 04 08.21505 12 16 31.59 -01 04 59.6 19.7 R H15 – ISON-NM Observatory, Mayhill MPS 378355
2011 04 08.22869 12 16 30.81 -01 04 55.5 19.7 R H15 – ISON-NM Observatory, Mayhill MPS 378355
2011 04 13.20559 12 12 06.44 -00 40 50.7 20.2 V G96 – Mt. Lemmon Survey MPS 379484
2011 04 13.21300 12 12 06.08 -00 40 48.9 20.4 V G96 – Mt. Lemmon Survey MPS 379484
2011 04 13.22034 12 12 05.68 -00 40 46.3 20.3 V G96 – Mt. Lemmon Survey MPS 379484
2011 04 13.22773 12 12 05.32 -00 40 44.5 20.6 V G96 – Mt. Lemmon Survey MPS 379484
2011 04 25.19802 12 03 27.03 +00 04 11.1 20.8 V G96 – Mt. Lemmon Survey MPS 380938
2011 04 25.20493 12 03 26.78 +00 04 11.4 21.1 V G96 – Mt. Lemmon Survey MPS 380938
2011 04 25.21189 12 03 26.49 +00 04 13.7 20.2 V G96 – Mt. Lemmon Survey MPS 380938
2011 04 25.21888 12 03 26.24 +00 04 14.7 20.7 V G96 – Mt. Lemmon Survey MPS 380938
2011 04 27.20053 12 02 20.90 +00 09 28.5 20.7 V G96 – Mt. Lemmon Survey MPS 380938
2011 04 27.20624 12 02 20.61 +00 09 29.7 21.3 V G96 – Mt. Lemmon Survey MPS 380938
2011 04 27.21207 12 02 20.50 +00 09 30.0 20.6 V G96 – Mt. Lemmon Survey MPS 380938
2011 04 27.21786 12 02 20.29 +00 09 30.9 20.9 V G96 – Mt. Lemmon Survey MPS 380938
2012 09 17.42333 01 12 14.76 +06 56 29.7 20.6 V G96 – Mt. Lemmon Survey MPS 432950
2012 09 17.43196 01 12 14.36 +06 56 28.2 21.2 V G96 – Mt. Lemmon Survey MPS 432950
2012 09 17.44059 01 12 14.00 +06 56 25.4 21.4 V G96 – Mt. Lemmon Survey MPS 432950
2012 09 17.44926 01 12 13.46 +06 56 24.1 20.7 V G96 – Mt. Lemmon Survey MPS 432950
2012 09 22.25819 01 08 13.70 +06 34 57.5 20.7 V 691 – Steward Observatory, Kitt Peak-Spacewatch MPS 433877
2012 09 22.27591 01 08 12.74 +06 34 52.6 20.5 V 691 – Steward Observatory, Kitt Peak-Spacewatch MPS 433877
2012 09 22.29364 01 08 11.79 +06 34 47.6 20.9 V 691 – Steward Observatory, Kitt Peak-Spacewatch MPS 433877
2012 10 08.416343 00 52 55.988 +05 11 35.17 20.0 r F51 – Pan-STARRS 1, Haleakala MPS 437220
2012 10 08.428406 00 52 55.261 +05 11 31.33 20.2 r F51 – Pan-STARRS 1, Haleakala MPS 437220
2012 10 08.492868 00 52 51.365 +05 11 10.80 20.0 i F51 – Pan-STARRS 1, Haleakala MPS 437220
2012 10 22.358642 00 40 23.269 +04 02 59.96 20.5 i F51 – Pan-STARRS 1, Haleakala MPS 439051
2012 10 22.371002 00 40 22.658 +04 02 56.68 20.3 i F51 – Pan-STARRS 1, Haleakala MPS 439051
2012 10 22.382784 00 40 22.055 +04 02 53.98 20.7 r F51 – Pan-STARRS 1, Haleakala MPS 439051
2012 11 05.281988 00 31 30.277 +03 16 22.33 21.0 w F51 – Pan-STARRS 1, Haleakala MPS 441045
2012 11 05.297126 00 31 29.824 +03 16 20.27 21.1 w F51 – Pan-STARRS 1, Haleakala MPS 441045
2012 11 05.312212 00 31 29.380 +03 16 18.19 21.3 w F51 – Pan-STARRS 1, Haleakala MPS 441045
2012 11 05.327297 00 31 28.914 +03 16 16.03 21.0 w F51 – Pan-STARRS 1, Haleakala MPS 441045
